Starlink 32462

operational
NORAD ID: 62129 Int'l Des: 2024-222 Owner: SPXS Country: US Constellation: starlink
LEOCIRCULAR

关于 Starlink 32462

正在加载描述...

实时位置

正在加载3D地球...

即将过境

高度历史

Altitude vs Time

uPlot chart will show altitude changes over time

两行轨道根数

1 62129U 24222R 25354.02423580 .00013503 00000-0 49904-3 0 9996
2 62129 43.0033 222.7704 0002559 265.5872 94.4688 15.27598174 60605
Epoch: Dec 20, 2025 • Age: 13 hours

当前状态

高度 484.1 km
速度 7.63 km/s
星下点 26.36°N, 72.22°E
发射日期 Nov 27, 2024
运行时间 1 years
类型 internet

技术详情

分类 Payload
质量 730.00 kg
干质量 700.00 kg
总质量 730.00 kg
长度 0.30 m
直径 4.10 m
跨度 29.00 m
形状 Box + pan
制造商 SPXS
平台类型 Starlink V2M
阶段状态 In Orbit
所有者/国家 SPXS/US

大型星座

Loading constellations...